�������l�o���
Date,Time,MP-1(��Sv/h),MP-2(��Sv/h),MP-3(��Sv/h),MP-4(��Sv/h),MP-5(��Sv/h),MP-6(��Sv/h),MP-7(��Sv/h),MP-8(��Sv/h),����,����(m/s),���J
2021/02/24,00:00,0.654,0.957,0.602,1.202,0.848,0.378,0.666,0.624,�k�k��,5.9,��
2021/02/24,00:10,0.653,0.956,0.602,1.205,0.848,0.378,0.666,0.624,�k�k��,6.9,��
2021/02/24,00:20,0.657,0.957,0.602,1.200,0.848,0.377,0.668,0.624,�k,5.2,��
2021/02/24,00:30,0.654,0.958,0.603,1.201,0.848,0.375,0.666,0.624,�k,6.0,��
2021/02/24,00:40,0.654,0.957,0.602,1.200,0.847,0.378,0.667,0.624,�k,6.2,��
2021/02/24,00:50,0.654,0.957,0.604,1.202,0.846,0.379,0.667,0.625,�k,6.8,��
2021/02/24,01:00,0.655,0.955,0.602,1.202,0.848,0.378,0.666,0.625,�k,7.1,��
2021/02/24,01:10,0.655,0.955,0.602,1.201,0.845,0.377,0.666,0.624,�k,7.2,��
2021/02/24,01:20,0.654,0.958,0.603,1.201,0.848,0.378,0.667,0.625,�k,7.0,��
2021/02/24,01:30,0.654,0.957,0.603,1.202,0.849,0.376,0.666,0.625,�k,6.5,��
2021/02/24,01:40,0.656,0.956,0.602,1.198,0.846,0.376,0.667,0.624,�k,5.4,��
2021/02/24,01:50,0.653,0.957,0.601,1.200,0.849,0.377,0.667,0.625,�k,5.4,��
2021/02/24,02:00,0.655,0.958,0.602,1.202,0.848,0.375,0.665,0.624,�k,4.7,��
2021/02/24,02:10,0.655,0.956,0.603,1.201,0.848,0.379,0.666,0.624,�k�k��,3.3,��
2021/02/24,02:20,0.655,0.958,0.601,1.199,0.847,0.377,0.666,0.626,�k��,2.6,��
2021/02/24,02:30,0.654,0.957,0.601,1.201,0.847,0.376,0.666,0.624,�k�k��,3.0,��
2021/02/24,02:40,0.653,0.957,0.601,1.203,0.848,0.377,0.668,0.625,�k,3.0,��
2021/02/24,02:50,0.654,0.958,0.601,1.201,0.847,0.377,0.667,0.625,�k,3.4,��
2021/02/24,03:00,0.655,0.958,0.603,1.198,0.846,0.378,0.668,0.625,�k,3.9,��
2021/02/24,03:10,0.652,0.959,0.602,1.201,0.847,0.376,0.667,0.624,�k�k��,2.9,��
2021/02/24,03:20,0.654,0.957,0.603,1.202,0.847,0.376,0.668,0.624,�k,3.6,��
2021/02/24,03:30,0.653,0.957,0.600,1.200,0.846,0.377,0.669,0.624,�k�k��,3.5,��
2021/02/24,03:40,0.653,0.956,0.602,1.200,0.847,0.378,0.667,0.625,�k,5.1,��
2021/02/24,03:50,0.655,0.957,0.601,1.200,0.846,0.378,0.667,0.624,�k,5.0,��
2021/02/24,04:00,0.654,0.956,0.602,1.200,0.848,0.377,0.667,0.625,�k,5.6,��
2021/02/24,04:10,0.656,0.957,0.602,1.202,0.847,0.376,0.666,0.625,�k,2.8,��
2021/02/24,04:20,0.653,0.957,0.603,1.202,0.846,0.377,0.666,0.626,�k�k��,4.4,��
2021/02/24,04:30,0.653,0.956,0.602,1.200,0.847,0.378,0.669,0.626,�k,6.4,��
2021/02/24,04:40,0.654,0.957,0.602,1.202,0.845,0.375,0.668,0.624,�k�k��,6.2,��
2021/02/24,04:50,0.653,0.955,0.603,1.202,0.847,0.377,0.666,0.625,�k,5.6,��
2021/02/24,05:00,0.654,0.958,0.604,1.202,0.847,0.376,0.668,0.624,�k,4.9,��
2021/02/24,05:10,0.654,0.957,0.602,1.199,0.845,0.377,0.665,0.623,�k,4.5,��
2021/02/24,05:20,0.654,0.956,0.601,1.202,0.847,0.376,0.666,0.623,�k,4.3,��
2021/02/24,05:30,0.652,0.955,0.602,1.200,0.845,0.379,0.667,0.625,�k,3.0,��
2021/02/24,05:40,0.653,0.954,0.604,1.203,0.846,0.376,0.666,0.624,�k,3.6,��
2021/02/24,05:50,0.654,0.957,0.602,1.198,0.845,0.378,0.667,0.625,�k�k��,3.5,��
2021/02/24,06:00,0.654,0.956,0.603,1.202,0.846,0.378,0.666,0.624,�k,3.0,��
2021/02/24,06:10,0.653,0.956,0.603,1.201,0.846,0.376,0.668,0.624,�k,2.6,��
2021/02/24,06:20,0.654,0.956,0.601,1.202,0.846,0.377,0.667,0.624,�k�k��,1.5,��
2021/02/24,06:30,0.655,0.956,0.602,1.200,0.847,0.377,0.668,0.625,�k�k��,2.5,��
2021/02/24,06:40,0.652,0.956,0.603,1.197,0.847,0.378,0.666,0.623,�k�k��,2.5,��
2021/02/24,06:50,0.652,0.957,0.602,1.200,0.847,0.377,0.667,0.625,�k,2.3,��
2021/02/24,07:00,0.653,0.957,0.601,1.199,0.845,0.375,0.666,0.624,�k�k��,2.3,��
2021/02/24,07:10,0.651,0.956,0.602,1.200,0.845,0.378,0.666,0.624,�k�k��,1.9,��
2021/02/24,07:20,0.653,0.956,0.603,1.201,0.843,0.376,0.666,0.624,�k�k��,3.4,��
2021/02/24,07:30,0.653,0.957,0.600,1.202,0.846,0.377,0.668,0.625,�k�k��,3.7,��
2021/02/24,07:40,0.652,0.958,0.602,1.202,0.845,0.375,0.667,0.625,�k�k��,3.2,��
2021/02/24,07:50,0.654,0.958,0.603,1.204,0.844,0.376,0.666,0.626,�k��,3.1,��
2021/02/24,08:00,0.655,0.955,0.603,1.202,0.845,0.377,0.668,0.625,�k�k��,3.8,��
2021/02/24,08:10,0.654,0.958,0.601,1.202,0.845,0.377,0.667,0.624,�k�k��,2.5,��
2021/02/24,08:20,0.654,0.959,0.603,1.202,0.846,0.377,0.669,0.623,�k,2.6,��
2021/02/24,08:30,0.655,0.957,0.602,1.200,0.845,0.377,0.668,0.624,�k�k��,3.0,��
2021/02/24,08:40,0.656,0.957,0.603,1.200,0.846,0.377,0.668,0.626,�k,2.2,��
2021/02/24,08:50,0.654,0.954,0.600,1.201,0.847,0.378,0.669,0.626,�k�k��,2.3,��
2021/02/24,09:00,0.656,0.955,0.600,1.203,0.847,0.379,0.670,0.626,�k�k��,2.3,��
2021/02/24,09:10,0.657,0.956,0.603,1.200,0.847,0.378,0.668,0.626,�k�k��,3.1,��
2021/02/24,09:20,0.655,0.956,0.602,1.203,0.846,0.378,0.669,0.625,�k�k��,2.5,��
2021/02/24,09:30,0.654,0.956,0.602,1.202,0.845,0.378,0.669,0.625,�k�k��,1.9,��
2021/02/24,09:40,0.656,0.956,0.604,1.203,0.847,0.378,0.668,0.627,���k��,3.2,��
2021/02/24,09:50,0.657,0.957,0.602,1.200,0.849,0.377,0.668,0.625,���k��,1.7,��
2021/02/24,10:00,0.656,0.958,0.602,1.201,0.848,0.378,0.668,0.625,�k,5.7,��
2021/02/24,10:10,0.656,0.957,0.604,1.201,0.848,0.378,0.668,0.627,�k�k��,6.2,��
2021/02/24,10:20,0.656,0.955,0.603,1.202,0.847,0.376,0.666,0.626,�k,5.8,��
2021/02/24,10:30,0.659,0.957,0.604,1.200,0.847,0.378,0.668,0.626,�k,4.9,��
2021/02/24,10:40,0.656,0.956,0.604,1.202,0.849,0.377,0.666,0.627,�k,5.4,��
2021/02/24,10:50,0.656,0.959,0.604,1.206,0.849,0.376,0.665,0.627,�k,4.9,��
2021/02/24,11:00,0.657,0.959,0.604,1.202,0.847,0.378,0.666,0.624,�k,5.8,��
2021/02/24,11:10,0.658,0.957,0.604,1.203,0.850,0.379,0.665,0.625,�k�k��,4.2,��
2021/02/24,11:20,0.657,0.959,0.605,1.204,0.850,0.379,0.664,0.627,�k,3.3,��
2021/02/24,11:30,0.657,0.958,0.605,1.206,0.850,0.378,0.666,0.626,�k�k��,3.0,��
2021/02/24,11:40,0.657,0.961,0.603,1.204,0.849,0.379,0.667,0.626,��,1.5,��
2021/02/24,11:50,0.656,0.963,0.605,1.203,0.848,0.378,0.667,0.625,���k��,6.3,��
2021/02/24,12:00,0.656,0.960,0.604,1.202,0.850,0.378,0.668,0.626,�k��,8.9,��
2021/02/24,12:10,0.655,0.961,0.605,1.204,0.850,0.379,0.667,0.626,�k�k��,5.6,��
2021/02/24,12:20,0.658,0.959,0.604,1.204,0.848,0.377,0.666,0.625,�k��,5.8,��
2021/02/24,12:30,0.657,0.959,0.605,1.202,0.851,0.378,0.666,0.626,�k��,5.0,��
2021/02/24,12:40,0.658,0.961,0.607,1.207,0.850,0.378,0.668,0.626,���k��,9.9,��
2021/02/24,12:50,0.656,0.961,0.605,1.203,0.848,0.379,0.666,0.626,�k��,3.4,��
2021/02/24,13:00,0.657,0.961,0.604,1.206,0.851,0.379,0.668,0.625,���k��,6.6,��
2021/02/24,13:10,0.657,0.960,0.605,1.205,0.847,0.379,0.669,0.626,��,5.3,��
2021/02/24,13:20,0.656,0.960,0.605,1.205,0.849,0.378,0.666,0.626,���k��,10.2,��
2021/02/24,13:30,0.658,0.960,0.602,1.202,0.848,0.378,0.666,0.626,��,10.9,��
2021/02/24,13:40,0.657,0.961,0.603,1.204,0.849,0.378,0.666,0.627,��,13.0,��
2021/02/24,13:50,0.656,0.957,0.601,1.206,0.848,0.378,0.666,0.625,���k��,9.8,��
2021/02/24,14:00,0.657,0.956,0.603,1.205,0.847,0.378,0.667,0.625,���k��,7.4,��
2021/02/24,14:10,0.657,0.957,0.604,1.205,0.847,0.379,0.667,0.624,�k��,6.3,��
2021/02/24,14:20,0.656,0.960,0.603,1.206,0.849,0.379,0.668,0.623,-,CALM,��
2021/02/24,14:30,0.657,0.959,0.604,1.204,0.849,0.380,0.667,0.624,���k��,3.7,��
2021/02/24,14:40,0.657,0.957,0.603,1.205,0.850,0.379,0.667,0.624,��,6.2,��
2021/02/24,14:50,0.656,0.959,0.605,1.206,0.850,0.379,0.666,0.624,���k��,9.8,��
2021/02/24,15:00,0.656,0.958,0.606,1.205,0.848,0.380,0.667,0.625,�k��,5.7,��
2021/02/24,15:10,0.657,0.959,0.605,1.205,0.850,0.380,0.667,0.624,�쐼,0.6,��
2021/02/24,15:20,0.656,0.960,0.604,1.205,0.849,0.378,0.669,0.623,��,5.3,��
2021/02/24,15:30,0.657,0.961,0.605,1.205,0.849,0.379,0.669,0.627,���k��,5.1,��
2021/02/24,15:40,0.656,0.961,0.605,1.206,0.852,0.379,0.669,0.627,���k��,6.9,��
2021/02/24,15:50,0.655,0.961,0.603,1.206,0.850,0.378,0.668,0.625,��,6.0,��
2021/02/24,16:00,0.656,0.962,0.605,1.206,0.850,0.380,0.669,0.626,��,8.1,��
2021/02/24,16:10,0.655,0.961,0.604,1.204,0.851,0.380,0.669,0.626,��,5.4,��
2021/02/24,16:20,0.656,0.962,0.604,1.205,0.849,0.379,0.669,0.626,�k��,5.9,��
2021/02/24,16:30,0.654,0.961,0.604,1.208,0.849,0.378,0.668,0.626,�k�k��,5.7,��
2021/02/24,16:40,0.657,0.963,0.604,1.206,0.849,0.378,0.670,0.626,���k��,7.1,��
2021/02/24,16:50,0.657,0.961,0.605,1.206,0.852,0.379,0.670,0.626,���k��,7.8,��
2021/02/24,17:00,0.655,0.961,0.604,1.207,0.850,0.377,0.669,0.626,���k��,5.5,��
2021/02/24,17:10,0.655,0.961,0.605,1.205,0.849,0.379,0.669,0.624,���k��,5.9,��
2021/02/24,17:20,0.657,0.962,0.605,1.205,0.850,0.378,0.668,0.625,�k��,4.1,��
2021/02/24,17:30,0.655,0.960,0.604,1.204,0.849,0.379,0.669,0.625,�k��,3.7,��
2021/02/24,17:40,0.655,0.960,0.604,1.205,0.851,0.378,0.669,0.626,���쐼,1.4,��
2021/02/24,17:50,0.655,0.959,0.603,1.205,0.850,0.379,0.668,0.625,��,3.1,��
2021/02/24,18:00,0.655,0.958,0.602,1.206,0.851,0.378,0.667,0.625,���k��,4.3,��
2021/02/24,18:10,0.654,0.960,0.604,1.205,0.851,0.378,0.667,0.625,��,3.7,��
2021/02/24,18:20,0.656,0.962,0.605,1.205,0.852,0.376,0.667,0.625,��,4.6,��
2021/02/24,18:30,0.656,0.961,0.603,1.207,0.852,0.377,0.667,0.626,��,3.7,��
2021/02/24,18:40,0.655,0.961,0.603,1.206,0.850,0.378,0.668,0.626,��,3.7,��
2021/02/24,18:50,0.656,0.959,0.604,1.204,0.848,0.377,0.668,0.624,�k�k��,3.3,��
2021/02/24,19:00,0.654,0.962,0.602,1.203,0.851,0.377,0.669,0.626,�k��,3.2,��
2021/02/24,19:10,0.655,0.960,0.604,1.204,0.851,0.378,0.666,0.625,���k��,4.1,��
2021/02/24,19:20,0.654,0.959,0.604,1.205,0.852,0.376,0.667,0.625,���k��,2.5,��
2021/02/24,19:30,0.655,0.960,0.604,1.204,0.848,0.378,0.668,0.623,���k��,3.1,��
2021/02/24,19:40,0.654,0.961,0.602,1.204,0.851,0.378,0.667,0.625,���k��,5.5,��
2021/02/24,19:50,0.652,0.961,0.603,1.204,0.852,0.378,0.669,0.625,���k��,4.1,��
2021/02/24,20:00,0.653,0.961,0.603,1.203,0.852,0.376,0.668,0.625,�k��,5.8,��
2021/02/24,20:10,0.655,0.959,0.602,1.202,0.851,0.376,0.667,0.624,�k��,4.6,��
2021/02/24,20:20,0.656,0.961,0.603,1.205,0.852,0.378,0.668,0.623,�k��,5.7,��
2021/02/24,20:30,0.654,0.962,0.604,1.206,0.849,0.376,0.667,0.625,���k��,6.3,��
2021/02/24,20:40,0.654,0.962,0.603,1.206,0.850,0.376,0.669,0.625,���k��,5.7,��
2021/02/24,20:50,0.654,0.961,0.601,1.202,0.849,0.377,0.667,0.624,�k��,4.2,��
2021/02/24,21:00,0.654,0.961,0.602,1.203,0.850,0.377,0.667,0.624,���k��,3.6,��
2021/02/24,21:10,0.654,0.961,0.601,1.205,0.850,0.378,0.669,0.625,�k�k��,3.6,��
2021/02/24,21:20,0.652,0.957,0.600,1.206,0.850,0.377,0.668,0.625,�k��,5.3,��
2021/02/24,21:30,0.654,0.959,0.602,1.206,0.849,0.377,0.668,0.625,�k��,3.7,��
2021/02/24,21:40,0.655,0.960,0.603,1.203,0.850,0.376,0.668,0.625,�k��,6.8,��
2021/02/24,21:50,0.655,0.960,0.602,1.205,0.849,0.376,0.668,0.625,�k��,7.0,��
2021/02/24,22:00,0.655,0.960,0.603,1.205,0.851,0.376,0.667,0.624,���k��,7.6,��
2021/02/24,22:10,0.654,0.960,0.602,1.204,0.849,0.377,0.668,0.625,���k��,6.0,��
2021/02/24,22:20,0.654,0.958,0.603,1.202,0.850,0.378,0.668,0.626,���k��,6.7,��
2021/02/24,22:30,0.654,0.962,0.601,1.204,0.850,0.376,0.669,0.623,���k��,8.9,��
2021/02/24,22:40,0.656,0.959,0.601,1.203,0.850,0.377,0.669,0.625,���k��,8.6,��
2021/02/24,22:50,0.654,0.960,0.601,1.204,0.848,0.376,0.667,0.624,���k��,11.6,��
2021/02/24,23:00,0.654,0.959,0.601,1.203,0.850,0.378,0.668,0.625,���k��,10.2,��
2021/02/24,23:10,0.656,0.959,0.601,1.206,0.849,0.375,0.668,0.625,�k��,7.8,��
2021/02/24,23:20,0.654,0.959,0.601,1.205,0.848,0.376,0.669,0.627,���k��,7.1,��
2021/02/24,23:30,0.654,0.962,0.600,1.205,0.848,0.376,0.667,0.626,���k��,9.2,��
2021/02/24,23:40,0.655,0.960,0.601,1.203,0.849,0.376,0.669,0.625,���k��,10.5,��
2021/02/24,23:50,0.654,0.960,0.601,1.203,0.851,0.375,0.668,0.626,���k��,10.6,��
